Weather History for Atlanta Dekalb, GA

Change the Weather History Date:

Tuesday, May 29, 2012

  Actual Average Record
Temperature  
Mean Temperature 74 °F 73 °F  
Max Temperature 82 °F 83 °F 91 °F (2006)
Min Temperature 69 °F 63 °F 55 °F (2005)
Cooling Degree Days 10 8  
Month to date cooling degree days 146  
Year to date cooling degree days 195  
Growing Degree Days 24 (Base 50)    
Moisture  
Dew Point 65 °F    
Average Humidity 73    
Maximum Humidity 88    
Minimum Humidity 56    
Precipitation  
Precipitation 0.16 in 0.13 in 0.54 in (2001)
Month to date precipitation 3.78  
Year to date precipitation 22.22  
Sea Level Pressure  
Sea Level Pressure 29.88 in    
Wind  
Wind Speed 6 mph (ENE)    
Max Wind Speed 10 mph    
Max Gust Speed 16 mph    
Visibility 9 miles    
Events Rain    
T = Trace of Precipitation, MM = Missing Value Source: NWS Daily Summary

Daily Weather History Graph

Daily Weather History Graph

Search for Another Location

Airport:

Trip Planner

Search our weather history database for the weather conditions in past years. The results will help you decide how hot, cold, wet, or windy it might be!

Date:

Astronomy

May. 29, 2012 Rise Set
Actual Time 6:28 AM EDT 8:41 PM EDT
Civil Twilight 5:59 AM EDT 9:10 PM EDT
Nautical Twilight 5:24 AM EDT 9:45 PM EDT
Astronomical Twilight 4:47 AM EDT 10:22 PM EDT
Moon 2:27 PM EDT (5/29) 2:03 AM EDT (5/29)
Length of Visible Light 15h 10m
Length of Day
14h 13m
First Quarter, 59% of the Moon is Illuminated
May 29
First Quarter
Jun 4
Full
Jun 11
Last Quarter
Jun 19
New
Jun 26
First Quarter

Hourly Weather History & Observations

Time (EDT) Temp. Heat Index Dew Point Humidity Pressure Visibility Wind Dir Wind Speed Gust Speed Precip Events Conditions
12:32 AM 73.4 °F - 66.2 °F 78% 29.97 in 10.0 mi Variable 6.9 mph - N/A   Mostly Cloudy
12:53 AM 73.0 °F - 66.0 °F 79% 29.91 in 10.0 mi Variable 5.8 mph - N/A   Mostly Cloudy
1:53 AM 73.0 °F - 66.0 °F 79% 29.90 in 10.0 mi Variable 5.8 mph - N/A   Overcast
2:53 AM 72.0 °F - 66.0 °F 81% 29.88 in 10.0 mi ENE 5.8 mph - N/A   Mostly Cloudy
3:53 AM 72.0 °F - 66.0 °F 81% 29.88 in 10.0 mi ENE 8.1 mph - N/A   Overcast
4:53 AM 72.0 °F - 64.9 °F 78% 29.86 in 10.0 mi Variable 5.8 mph - N/A   Mostly Cloudy
5:53 AM 72.0 °F - 64.9 °F 78% 29.86 in 10.0 mi Variable 4.6 mph - N/A   Overcast
6:33 AM 71.6 °F - 64.4 °F 78% 29.94 in 10.0 mi Variable 4.6 mph - N/A   Overcast
6:53 AM 72.0 °F - 64.9 °F 78% 29.89 in 10.0 mi East 3.5 mph - N/A   Overcast
7:46 AM 71.6 °F - 64.4 °F 78% 29.96 in 10.0 mi Variable 3.5 mph - N/A   Overcast
7:53 AM 72.0 °F - 64.9 °F 78% 29.90 in 10.0 mi Variable 4.6 mph - N/A   Overcast
8:53 AM 72.0 °F - 66.0 °F 81% 29.91 in 7.0 mi NE 5.8 mph - 0.00 in   Mostly Cloudy
9:53 AM 73.9 °F - 66.0 °F 76% 29.89 in 10.0 mi ENE 6.9 mph - N/A   Overcast
10:28 AM 75.2 °F - 66.2 °F 73% 29.94 in 10.0 mi NE 10.4 mph 16.1 mph N/A   Overcast
10:37 AM 75.2 °F - 66.2 °F 73% 29.93 in 10.0 mi NNE 9.2 mph - N/A   Mostly Cloudy
10:53 AM 78.1 °F - 66.9 °F 68% 29.88 in 10.0 mi NE 8.1 mph - N/A   Overcast
11:53 AM 78.1 °F - 66.0 °F 66% 29.88 in 10.0 mi Variable 4.6 mph - N/A   Overcast
12:04 PM 78.8 °F - 64.4 °F 61% 29.93 in 10.0 mi NE 8.1 mph - N/A   Overcast
12:17 PM 78.8 °F - 64.4 °F 61% 29.93 in 10.0 mi North 8.1 mph - N/A   Overcast
12:53 PM 79.0 °F - 64.9 °F 62% 29.87 in 10.0 mi NNE 10.4 mph - N/A   Overcast
1:22 PM 71.6 °F - 66.2 °F 83% 29.92 in 4.0 mi East 6.9 mph - 0.05 in Rain Light Rain
1:25 PM 69.8 °F - 66.2 °F 88% 29.92 in 4.0 mi East 3.5 mph - 0.10 in Rain Light Rain
1:53 PM 73.0 °F - 68.0 °F 84% 29.87 in 4.0 mi Calm Calm - 0.16 in Rain Light Rain
2:53 PM 78.1 °F - 66.0 °F 66% 29.85 in 10.0 mi NE 6.9 mph - 0.00 in Rain Light Rain
3:53 PM 78.1 °F - 64.9 °F 64% 29.83 in 10.0 mi ENE 9.2 mph - 0.00 in Rain Light Rain
4:53 PM 80.1 °F 81.7 °F 64.0 °F 58% 29.81 in 10.0 mi ENE 4.6 mph - 0.00 in Rain Light Rain
5:53 PM 80.1 °F 81.5 °F 63.0 °F 56% 29.80 in 10.0 mi ENE 4.6 mph - 0.00 in Rain Light Rain
6:53 PM 80.1 °F 81.5 °F 63.0 °F 56% 29.79 in 10.0 mi Variable 4.6 mph - 0.00 in Rain Light Rain
7:53 PM 79.0 °F - 63.0 °F 58% 29.80 in 10.0 mi Calm Calm - 0.00 in   Clear
8:53 PM 75.9 °F - 64.9 °F 69% 29.81 in 10.0 mi Calm Calm - N/A   Clear
9:53 PM 73.9 °F - 64.0 °F 71% 29.81 in 10.0 mi East 3.5 mph - N/A   Scattered Clouds
10:53 PM 72.0 °F - 64.9 °F 78% 29.82 in 10.0 mi East 3.5 mph - N/A   Clear
11:53 PM 71.1 °F - 64.9 °F 81% 29.83 in 10.0 mi Calm Calm - N/A   Scattered Clouds